Temperature
12 12 12 12 12 12 12 11 11 11 11 11 11 11 11 11 11 11 11 11 11 11 11 11 11 11 11 11 10 10 10 10 11 11 11 11 11 10 10 10 10 10 10
12 11 11 11 11 11 11 11 11 11 11 11 11 11 11 11 11 11 11 11 11 11 11 11 11 10 10 10 10 10 10 10 10 10 10 10 10 10 10 10 10 10 10
11 11 11 11 11 11 11 11 11 11 11 11 11 11 11 11 10 11 11 11 11 11 11 10 10 10 10 10 10 10 10 10 10 10 10 10 10 9 9 9 9 9 9
11 11 11 11 11 11 11 11 10 10 10 10 10 10 10 10 10 10 10 10 10 10 10 10 10 10 9 9 9 9 9 10 10 9 9 9 9 9 9 9 9 9 9
11 10 10 10 10 10 10 10 10 10 10 10 10 10 10 10 10 10 10 10 10 10 10 10 10 9 9 9 9 9 9 9 9 9 9 9 9 8 8 8 8 8 8
10 10 10 10 10 10 10 10 10 10 10 10 10 9 9 10 10 10 10 9 10 10 10 9 9 9 9 9 9 9 9 9 9 9 8 8 8 8 8 7 7 7 7
10 10 10 10 10 10 10 9 9 9 9 9 9 9 9 9 9 9 9 9 9 9 9 9 9 9 9 9 9 9 9 8 8 8 8 8 8 8 7 7 7 7 7
9 9 9 9 9 9 9 9 9 9 9 9 9 8 8 8 9 9 9 9 9 9 9 9 9 9 9 9 9 9 8 8 8 8 7 7 7 7 6 6 6 6 6
9 9 9 9 9 9 9 9 9 9 9 9 8 8 8 8 8 8 8 8 8 8 8 8 8 8 8 8 8 8 8 8 8 7 7 7 6 6 6 6 5 5 5
9 9 9 9 9 9 9 9 9 8 8 8 8 8 8 8 8 8 8 8 8 8 8 8 8 8 8 8 8 8 8 7 7 7 7 6 6 6 5 5 5 5 5
9 9 9 8 8 8 8 8 8 8 8 8 8 8 8 8 8 8 7 7 7 8 8 8 8 8 7 7 7 7 7 7 7 7 6 6 6 5 5 5 5 5 5
8 8 8 8 8 8 8 8 8 8 8 8 8 8 8 7 7 7 7 7 7 7 7 7 7 7 7 7 7 7 7 6 6 6 6 6 6 5 5 5 5 5 4
8 8 8 8 8 8 8 8 8 7 7 7 7 7 7 7 7 7 7 7 6 6 6 7 7 7 6 6 6 6 6 6 6 6 6 5 5 5 5 5 5 4 4
8 8 8 8 7 7 7 7 7 7 7 7 7 7 7 7 7 6 6 6 6 6 6 6 6 6 6 6 6 6 5 5 5 5 5 5 5 5 5 4 4 4 4
7 7 7 7 7 7 7 7 7 7 6 7 6 6 6 6 6 6 6 6 5 5 5 5 5 5 5 5 5 5 5 5 5 5 4 4 4 4 4 4 4 4 3
7 7 7 7 7 6 6 6 6 6 6 6 6 6 6 6 6 6 5 5 5 5 5 5 5 5 5 4 4 4 4 4 4 4 4 4 4 4 3 3 3 3 3
6 6 6 6 6 6 6 6 6 5 5 5 5 5 5 5 5 5 5 5 5 4 4 5 4 4 4 4 4 4 4 4 4 3 3 3 3 3 3 3 3 2 2
6 6 6 6 6 6 6 5 5 5 5 5 5 5 5 5 5 5 5 4 4 4 4 4 4 4 4 3 3 3 3 3 3 3 3 3 2 2 2 2 2 2 2
6 6 5 5 5 5 5 5 5 5 4 4 4 4 4 4 4 4 4 4 4 4 3 3 3 3 3 3 2 2 2 2 2 2 2 2 2 2 1 1 1 1 1
5 5 5 5 5 5 5 5 5 4 4 4 4 4 4 4 4 4 3 3 3 3 3 3 3 3 2 2 2 2 2 1 1 1 1 1 1 1 1 1 1 1 0
5 5 5 5 5 5 4 4 4 4 4 4 3 3 3 3 3 3 3 3 3 2 2 2 2 2 2 1 1 1 1 1 1 1 1 1 1 1 0 0 0 -0 -0
4 4 4 4 4 4 4 4 4 3 3 3 3 3 3 3 3 3 2 2 2 2 2 2 2 1 1 1 0 0 0 -0 0 0 -0 0 0 0 0 -0 -0 -1 -1
4 4 4 4 4 4 3 3 3 3 3 3 3 3 3 2 2 2 2 2 2 1 1 1 1 1 0 0 -0 -0 -1 -1 -1 -0 -1 -0 -0 -0 -1 -1 -1 -1 -1
4 4 3 3 3 3 3 3 3 3 3 3 2 2 2 2 2 2 2 1 1 1 1 0 0 0 -0 -0 -0 -1 -1 -1 -1 -1 -1 -1 -1 -1 -1 -1 -1 -1 -2
3 3 3 3 3 3 3 2 2 2 2 2 2 2 2 2 1 1 1 1 1 1 0 -0 -0 -0 -0 -1 -1 -1 -1 -2 -2 -1 -2 -2 -2 -2 -2 -1 -1 -2 -2
3 3 3 2 2 2 2 2 2 2 2 2 1 1 1 1 1 1 0 0 0 0 -0 -0 -1 -1 -1 -1 -1 -1 -2 -2 -2 -2 -2 -3 -3 -3 -3 -3 -2 -2 -3
Wind_Speed
2 2 3 3 3 3 2 2 2 3 3 3 4 4 4 6 8 9 9 10 9 8 8 8 8 8 8 9 9 9 9 9 9 9 9 9 9 9 10 10 10 10 10
3 2 2 2 3 3 2 2 3 3 3 3 3 4 5 6 7 9 9 9 9 8 8 7 7 7 7 7 7 8 8 8 8 8 8 8 9 9 9 9 9 9 10
4 3 2 2 2 3 3 3 3 3 2 2 2 4 4 5 6 7 8 8 8 7 7 6 6 6 6 6 6 6 6 7 7 7 7 7 8 8 8 9 9 9 9
5 4 2 2 3 3 2 2 1 2 2 2 2 2 2 3 5 5 6 7 7 7 6 6 6 5 5 4 4 4 4 5 5 5 5 5 6 6 7 8 8 9 9
5 4 3 2 3 2 1 1 1 2 2 2 1 1 1 1 2 4 5 6 6 7 6 5 5 5 4 3 2 2 2 3 3 3 3 4 5 5 6 7 7 8 9
4 4 3 2 3 2 2 1 2 2 2 1 1 1 1 1 1 2 3 4 5 5 5 5 4 3 3 2 1 1 1 1 1 2 2 3 4 4 5 6 7 8 8
4 3 2 2 2 2 2 2 2 2 2 2 2 1 1 0 1 2 2 3 3 4 4 4 4 3 2 2 1 0 1 2 1 2 2 3 3 4 4 5 6 7 8
2 2 2 2 1 2 2 2 2 1 1 1 1 1 0 1 1 2 2 2 3 3 3 3 3 3 2 2 2 1 2 3 3 3 3 4 4 4 5 6 6 7 7
1 2 2 2 1 2 2 2 2 2 2 1 1 2 2 2 0 1 2 2 3 2 2 2 3 3 2 2 2 1 2 3 4 4 4 5 5 5 6 6 7 7 8
1 2 2 2 2 1 2 2 2 1 2 2 1 0 1 1 1 1 1 2 3 3 3 2 3 3 3 3 3 2 2 3 4 5 6 6 7 7 7 7 7 8 8
2 2 2 2 2 2 2 2 1 1 1 2 2 1 1 1 1 2 2 2 2 2 3 3 3 3 3 3 3 3 3 4 5 6 7 7 7 7 8 7 8 8 9
1 2 2 2 2 2 2 2 2 2 2 2 2 1 1 1 1 1 2 2 2 2 2 2 3 3 4 4 4 4 5 5 6 8 8 8 8 8 8 8 9 9 10
1 2 2 2 2 2 3 3 2 3 2 3 3 2 2 2 1 1 1 2 2 2 2 2 3 5 5 5 4 4 5 6 7 8 9 9 9 8 8 9 10 10 10
2 2 2 2 3 3 2 2 2 3 3 3 3 3 2 2 2 2 2 2 2 2 2 3 2 4 4 4 5 5 6 7 8 9 10 10 9 9 10 10 11 11 11
2 3 3 2 3 3 3 3 2 3 3 3 3 3 3 3 2 2 2 3 3 3 4 3 1 2 3 3 4 5 6 8 9 10 10 10 10 10 11 11 11 11 12
2 3 3 3 3 3 3 3 3 3 3 3 3 4 4 3 3 2 3 3 3 4 4 3 2 2 2 3 6 6 7 8 9 10 10 10 10 11 11 12 12 12 12
3 3 4 4 4 4 4 4 4 4 4 4 4 5 5 4 4 3 3 3 3 3 5 4 2 1 2 3 4 6 7 7 9 10 11 11 11 12 12 12 12 13 13
3 3 3 4 4 4 4 5 5 5 5 5 5 5 6 4 5 4 4 4 4 4 4 5 3 2 3 3 3 4 6 7 9 10 11 12 12 12 12 12 13 12 12
3 3 3 4 4 4 5 5 5 5 6 6 6 6 6 6 6 5 5 5 4 4 3 4 4 2 2 2 2 3 4 5 7 9 10 11 12 12 12 12 12 12 12
3 3 4 4 4 4 5 5 5 5 5 5 6 6 6 7 7 6 5 5 4 4 3 4 4 3 3 3 2 3 4 3 4 7 9 10 10 11 13 13 13 12 12
3 3 3 4 4 4 5 5 5 5 6 6 6 6 7 8 8 7 6 5 5 4 4 4 4 3 3 3 3 3 4 3 4 4 3 5 6 7 10 13 12 12 12
3 3 4 4 4 4 6 7 6 5 5 6 6 6 6 7 8 9 9 8 7 6 6 5 5 6 6 4 3 3 3 3 4 2 2 5 4 5 8 9 11 12 13
3 3 4 4 4 5 6 7 7 5 5 6 6 6 5 6 7 6 7 7 7 9 9 6 7 7 5 5 4 4 4 4 5 4 2 5 4 5 7 10 12 13 12
4 4 4 4 4 5 7 7 7 5 4 5 6 6 6 5 6 6 5 6 6 7 8 6 6 6 5 4 5 5 5 4 4 4 3 4 3 4 5 8 12 12 10
4 4 4 4 5 5 6 6 5 3 4 5 5 5 5 5 8 8 6 6 6 5 7 9 8 7 7 7 5 2 2 3 5 4 3 3 3 3 4 4 8 9 10
4 4 4 4 5 5 6 6 5 3 3 4 4 4 6 6 7 8 6 6 6 6 4 3 4 5 6 7 8 5 4 4 3 4 2 2 2 2 3 3 3 5 8
Wind_Direction
128 128 122 126 123 127 128 129 105 97 93 95 96 89 83 88 97 97 93 93 90 87 86 87 88 86 87 85 80 76 74 70 66 65 61 57 52 47 43 39 37 34 31
117 116 112 107 97 99 101 99 91 88 86 81 81 80 76 80 93 106 108 99 92 87 84 85 83 86 88 87 83 77 74 70 66 63 58 56 51 44 40 36 31 27 24
119 110 109 108 97 99 90 78 83 83 89 86 84 73 70 77 85 96 111 114 106 93 86 86 86 85 88 88 84 80 76 73 67 62 55 50 45 40 36 31 24 23 20
126 109 112 118 108 94 82 76 73 76 75 80 85 82 81 85 88 95 103 112 114 110 99 95 97 92 86 87 85 82 79 74 68 58 50 43 39 36 33 26 20 17 14
126 119 128 134 129 117 110 125 91 101 89 73 82 88 85 94 102 106 107 110 114 119 120 114 107 101 91 84 84 86 82 72 61 50 41 33 30 29 25 18 11 8 7
125 120 127 140 134 136 139 131 123 109 119 123 86 67 73 140 119 114 121 118 124 131 135 136 131 129 121 110 102 82 74 44 36 27 22 16 12 10 7 3 2 1 360
108 118 124 134 132 153 154 142 134 128 128 108 87 53 330 199 166 155 130 127 131 134 138 145 144 147 147 155 164 219 290 287 299 325 339 342 343 345 346 345 346 349 350
103 128 134 147 145 153 137 134 130 134 152 140 143 150 180 283 262 189 161 170 163 151 152 162 159 154 151 153 173 234 288 290 283 292 310 315 317 323 326 327 330 335 337
112 123 138 142 156 162 160 153 156 152 181 217 158 153 161 204 249 228 208 181 172 170 164 167 164 162 166 155 161 196 280 296 294 288 291 300 302 303 310 315 321 324 328
135 125 136 150 164 167 162 163 160 161 165 199 256 257 186 159 151 247 262 218 191 187 190 177 176 182 183 181 176 197 249 279 283 287 285 290 294 296 300 306 314 318 321
152 154 157 156 171 173 166 160 170 174 184 194 202 227 276 324 211 179 235 248 257 231 202 184 177 177 187 186 187 216 231 261 276 281 285 286 289 298 302 304 309 312 314
169 172 169 160 169 176 174 177 185 190 209 210 210 206 192 196 224 198 222 243 242 243 229 199 177 176 188 190 207 226 232 255 269 277 283 286 289 294 300 302 304 306 307
194 203 182 173 177 180 179 177 188 201 213 216 214 218 220 222 217 218 220 250 258 259 235 230 200 184 193 200 212 229 239 253 267 276 282 289 291 292 293 294 295 299 301
199 202 184 180 179 179 181 180 202 212 213 218 224 220 227 232 218 211 208 212 264 268 241 236 221 186 191 207 220 229 244 255 267 273 279 286 289 289 288 288 289 291 294
192 186 185 186 188 189 190 190 200 210 207 214 219 223 228 236 227 222 213 200 203 240 254 236 212 206 203 217 241 246 252 260 269 273 275 281 284 283 283 284 285 288 291
194 187 194 194 196 200 204 200 203 209 210 217 219 220 226 229 225 220 221 225 215 215 247 246 230 225 212 237 251 261 265 268 267 269 275 278 280 282 280 279 282 285 288
193 196 200 201 203 205 207 208 214 211 216 222 225 225 228 224 220 220 221 225 231 220 243 269 263 243 233 240 260 265 275 271 268 268 272 276 279 280 282 282 282 284 286
202 204 206 210 213 210 209 213 219 220 220 224 227 227 230 226 223 222 219 225 231 229 230 258 273 258 247 240 241 259 275 274 271 271 272 276 277 280 283 284 286 286 287
210 207 209 218 222 221 220 222 222 226 228 228 225 227 229 221 228 226 223 226 231 238 229 241 262 258 254 249 256 275 275 276 279 276 274 275 277 281 284 287 288 289 289
218 221 223 225 227 230 232 230 228 232 237 237 231 227 227 223 224 221 225 227 225 230 233 236 251 255 257 256 240 261 278 270 278 283 274 272 276 282 285 285 284 284 286
235 230 229 232 231 231 231 231 232 235 238 244 241 233 231 227 224 223 225 220 217 225 231 238 247 257 256 255 249 240 261 282 283 265 270 276 281 280 280 279 277 278 285
243 237 231 229 234 241 242 241 241 240 240 239 241 238 235 229 228 235 238 235 227 224 226 234 246 247 252 249 246 245 258 288 289 269 278 283 278 272 275 272 275 282 288
236 240 239 234 239 244 245 246 245 245 241 240 237 234 239 234 230 225 238 246 252 251 243 236 239 243 245 236 230 242 243 252 262 260 287 282 272 269 275 277 283 283 284
233 236 239 240 245 250 249 251 254 252 247 242 235 229 230 229 226 222 224 233 240 246 247 245 239 241 244 230 222 229 237 257 275 262 239 267 276 270 282 284 282 281 281
245 243 239 240 246 256 249 248 250 248 250 248 240 232 230 228 236 231 225 231 244 255 257 252 253 259 260 259 253 236 235 257 281 273 230 233 273 293 284 273 276 279 289
247 250 253 248 245 253 254 247 242 236 248 254 249 240 240 241 241 234 223 222 238 248 243 250 258 267 257 254 253 230 216 236 262 273 239 220 269 313 300 274 273 292 296
Height
1522 1524 1525 1527 1529 1530 1531 1533 1534 1535 1536 1537 1538 1539 1540 1541 1542 1542 1542 1543 1544 1544 1545 1545 1545 1545 1545 1545 1545 1545 1545 1544 1544 1544 1544 1543 1543 1542 1542 1542 1541 1541 1541
1521 1522 1524 1526 1527 1529 1530 1531 1532 1534 1535 1536 1537 1538 1539 1540 1540 1541 1541 1542 1542 1543 1544 1544 1544 1544 1544 1544 1544 1544 1544 1544 1543 1543 1543 1542 1542 1542 1541 1541 1540 1540 1539
1519 1521 1523 1524 1526 1527 1529 1530 1531 1532 1534 1535 1536 1537 1538 1538 1539 1539 1540 1540 1541 1542 1542 1543 1543 1543 1543 1543 1543 1543 1543 1543 1542 1542 1542 1541 1541 1540 1540 1540 1539 1539 1538
1518 1519 1521 1523 1524 1526 1527 1528 1529 1531 1532 1533 1534 1535 1536 1537 1537 1538 1538 1539 1539 1540 1541 1541 1541 1542 1542 1542 1542 1542 1542 1541 1541 1541 1541 1540 1540 1539 1539 1538 1538 1537 1536
1516 1518 1519 1521 1523 1524 1526 1527 1528 1529 1530 1531 1532 1534 1534 1535 1536 1536 1537 1537 1538 1538 1539 1539 1540 1540 1540 1541 1541 1541 1540 1540 1540 1539 1539 1539 1538 1538 1537 1537 1536 1535 1535
1515 1516 1518 1519 1521 1522 1524 1525 1526 1527 1528 1529 1530 1532 1533 1533 1534 1534 1535 1535 1536 1536 1537 1537 1538 1538 1538 1539 1539 1539 1539 1538 1538 1538 1537 1537 1536 1536 1535 1535 1534 1533 1533
1513 1515 1516 1517 1519 1520 1521 1523 1524 1525 1526 1527 1528 1529 1531 1531 1532 1532 1533 1533 1534 1534 1535 1535 1536 1536 1536 1536 1536 1536 1536 1536 1536 1536 1535 1535 1534 1534 1533 1533 1532 1531 1530
1511 1513 1514 1515 1516 1518 1519 1521 1522 1523 1524 1525 1527 1527 1528 1530 1529 1530 1531 1531 1531 1532 1532 1533 1533 1533 1533 1533 1534 1534 1534 1533 1533 1533 1533 1532 1532 1531 1531 1530 1529 1528 1527
1509 1511 1512 1513 1515 1516 1516 1517 1519 1521 1522 1523 1524 1526 1526 1526 1527 1527 1528 1529 1529 1529 1530 1530 1530 1530 1531 1531 1531 1531 1531 1531 1530 1530 1530 1530 1529 1529 1528 1528 1527 1526 1524
1507 1508 1510 1511 1513 1514 1514 1515 1517 1518 1519 1520 1522 1522 1524 1524 1525 1524 1525 1526 1526 1526 1527 1527 1527 1527 1528 1528 1528 1528 1528 1527 1527 1527 1527 1526 1526 1525 1525 1524 1523 1522 1521
1505 1506 1507 1508 1510 1512 1512 1513 1514 1516 1517 1518 1519 1519 1520 1521 1522 1522 1522 1522 1523 1523 1523 1524 1524 1524 1524 1524 1524 1524 1524 1524 1524 1524 1523 1523 1522 1522 1521 1520 1519 1518 1517
1502 1504 1505 1506 1508 1509 1510 1511 1512 1513 1514 1515 1516 1516 1517 1518 1518 1519 1519 1519 1519 1519 1520 1520 1520 1520 1520 1521 1521 1521 1520 1520 1520 1520 1519 1519 1518 1517 1517 1516 1515 1514 1513
1499 1501 1502 1503 1505 1505 1507 1508 1509 1510 1511 1512 1512 1513 1514 1514 1516 1516 1516 1516 1515 1515 1515 1516 1516 1516 1517 1517 1517 1517 1516 1516 1516 1516 1515 1514 1514 1513 1512 1511 1511 1510 1509
1497 1498 1499 1500 1501 1502 1503 1504 1505 1506 1507 1508 1508 1509 1510 1511 1512 1512 1513 1513 1512 1511 1511 1511 1512 1512 1513 1513 1513 1513 1512 1512 1512 1511 1510 1510 1509 1508 1507 1506 1506 1505 1504
1495 1495 1496 1497 1498 1499 1500 1501 1502 1502 1503 1504 1505 1505 1506 1507 1507 1508 1509 1509 1510 1508 1507 1507 1508 1508 1508 1509 1508 1508 1507 1507 1507 1506 1505 1505 1504 1503 1502 1501 1500 1499 1498
1492 1492 1493 1494 1495 1496 1497 1497 1498 1498 1499 1499 1500 1501 1501 1502 1503 1504 1505 1505 1505 1505 1503 1502 1503 1504 1504 1504 1504 1503 1502 1502 1501 1501 1500 1500 1499 1498 1497 1496 1495 1494 1493
1489 1489 1490 1491 1491 1492 1493 1493 1494 1494 1495 1495 1496 1496 1496 1497 1498 1499 1500 1500 1500 1500 1499 1498 1499 1499 1499 1499 1498 1498 1497 1496 1496 1495 1495 1494 1493 1492 1491 1491 1489 1488 1487
1486 1486 1487 1487 1488 1488 1489 1489 1490 1490 1490 1490 1491 1491 1492 1492 1493 1494 1494 1495 1495 1495 1495 1493 1493 1493 1493 1493 1493 1492 1492 1491 1490 1490 1489 1489 1488 1487 1486 1485 1484 1483 1482
1483 1483 1483 1484 1484 1484 1485 1485 1485 1486 1486 1486 1486 1486 1487 1487 1487 1488 1489 1489 1490 1490 1489 1489 1488 1488 1488 1488 1487 1487 1486 1485 1485 1484 1484 1483 1482 1481 1480 1479 1478 1477 1476
1479 1479 1480 1480 1480 1481 1481 1481 1481 1481 1481 1481 1481 1481 1481 1482 1482 1483 1483 1484 1484 1484 1484 1483 1483 1482 1482 1482 1481 1481 1480 1479 1479 1479 1478 1477 1477 1476 1475 1473 1472 1471 1470
1476 1476 1476 1476 1476 1477 1477 1476 1476 1476 1476 1475 1475 1475 1476 1476 1476 1477 1477 1478 1478 1478 1478 1478 1477 1476 1476 1476 1476 1475 1474 1473 1473 1473 1472 1472 1471 1470 1469 1468 1467 1465 1464
1472 1472 1472 1472 1472 1472 1472 1472 1471 1471 1470 1469 1469 1469 1469 1470 1470 1471 1471 1472 1473 1473 1472 1472 1471 1471 1470 1470 1470 1470 1469 1468 1467 1468 1467 1466 1465 1464 1463 1462 1461 1460 1458
1468 1468 1467 1467 1467 1467 1467 1466 1466 1465 1464 1464 1463 1463 1463 1464 1465 1465 1465 1466 1466 1466 1467 1467 1466 1465 1465 1465 1465 1464 1464 1463 1462 1462 1461 1459 1459 1458 1457 1456 1455 1454 1452
1464 1463 1463 1463 1462 1462 1462 1461 1460 1459 1459 1458 1458 1458 1458 1458 1459 1459 1459 1459 1460 1460 1461 1461 1461 1460 1460 1460 1460 1459 1458 1458 1457 1457 1456 1454 1453 1452 1451 1450 1449 1448 1447
1459 1459 1459 1458 1458 1457 1457 1456 1455 1454 1453 1453 1453 1453 1453 1452 1453 1453 1453 1453 1453 1454 1455 1455 1455 1455 1455 1454 1454 1454 1453 1452 1450 1450 1451 1449 1447 1445 1444 1443 1443 1442 1441
1455 1455 1454 1454 1454 1453 1452 1451 1451 1449 1448 1448 1447 1447 1447 1447 1447 1447 1448 1447 1447 1448 1449 1448 1449 1449 1449 1449 1449 1448 1448 1447 1445 1444 1444 1444 1442 1441 1438 1436 1437 1436 1435